User: anonymous   Login
Location: Deuil
(48.9767°N, 2.3272°E)
Time: 01:48:02
(UTC+00:00)
Language:

NOAA 16 DEB - Orbit

View from above orbital plane
View from above orbital plane
View from above satellite
View from above satellite

Ground track
Ground track

The orbit data is extracted from the following two-line orbital elements,

1 41255U 00055FF  22226.24028912  .00002249  00000-0  93723-3 0  9993
2 41255  98.7378 322.4123 0047397 207.4741 152.3933 14.26672145347438
Epoch (UTC): 14 August 2022 05:46:00
Eccentricity: 0.0047397
inclination: 98.7378°
perigee height: 769 km
apogee height: 837 km
right ascension of ascending node: 322.4123°
argument of perigee: 207.4741°
revolutions per day: 14.26672145
mean anomaly at epoch: 152.3933°
orbit number at epoch: 34743

The dashed part of the orbit path shows where the satellite is in the earth's shadow,  

DLR